Weather History for GMMZ - January, 2013

Change the Weather History Date:

Saturday, January 12, 2013

  Actual Average Record
Temperature  
Mean Temperature 48 °F -  
Max Temperature 66 °F 64 °F - ()
Min Temperature 30 °F 37 °F - ()
Degree Days  
Heating Degree Days 17    
Moisture  
Dew Point 6 °F    
Average Humidity 18    
Maximum Humidity 29    
Minimum Humidity 4    
Precipitation  
Precipitation 0.00 in 0.02 in - ()
Sea Level Pressure  
Sea Level Pressure 30.23 in    
Wind  
Wind Speed 1 mph ()    
Max Wind Speed 4 mph    
Max Gust Speed -    
Visibility 12.0 miles    
Events      
T = Trace of Precipitation, MM = Missing Value Source: Averaged Metar Reports

Daily Weather History Graph

Daily Weather History Graph

Search for Another Location

Airport or City:

Trip Planner

Search our weather history database for the weather conditions in past years. The results will help you decide how hot, cold, wet, or windy it might be!

Date:

Astronomy

Jan. 12, 2013 Rise Set
Actual Time 7:26 AM WET 5:45 PM WET
Civil Twilight 7:00 AM WET 6:11 PM WET
Nautical Twilight 6:30 AM WET 6:41 PM WET
Astronomical Twilight 6:01 AM WET 7:10 PM WET
Moon 7:41 AM WET (1/12) 6:51 PM WET (1/12)
Length of Visible Light 11h 11m
Length of Day
10h 19m
New Moon, 1% of the Moon is Illuminated
Jan 12
New Moon
Jan 18
First Quarter
Jan 27
Full
Feb 3
Last Quarter
Feb 10
New

Hourly Weather History & Observations

Time (WET) Temp. Windchill Dew Point Humidity Pressure Visibility Wind Dir Wind Speed Gust Speed Precip Events Conditions
12:00 AM 38 °F - 5 °F 13%  in 12 mi NNW 1.2 mph - -  
12:00 AM 37.4 °F - 6.8 °F 28% 30.24 in - Variable 1.2 mph - N/A   Clear
1:00 AM 42.8 °F - 3.2 °F 19% 30.24 in - Variable 1.2 mph - N/A   Clear
2:00 AM 35.6 °F - 1.4 °F 24% 30.24 in - Variable 1.2 mph - N/A   Clear
3:00 AM 36 °F - 1 °F 11%  in 12 mi West 3.5 mph - -  
3:00 AM 35.6 °F 32.8 °F 1.4 °F 24% 30.24 in - Variable 3.5 mph - N/A   Clear
4:00 AM 39.2 °F - 6.8 °F 26% 30.24 in - Variable 1.2 mph - N/A   Clear
5:00 AM 33.8 °F - 1.4 °F 25% 30.24 in - Variable 2.3 mph - N/A   Clear
6:00 AM 33 °F - 2 °F 14%  in 12 mi WNW 1.2 mph - -  
6:00 AM 33.8 °F - 3.2 °F 28% 30.24 in - Variable 1.2 mph - N/A   Clear
7:00 AM 30.2 °F - 1.4 °F 29% 30.24 in - Variable 1.2 mph - N/A   Clear
8:00 AM 30.2 °F - 1.4 °F 29% 30.27 in - Variable 2.3 mph - N/A   Clear
9:00 AM 35 °F - 2 °F 12%  in 12 mi Calm Calm - -  
9:00 AM 35.6 °F - 1.4 °F 24% 30.27 in - Calm Calm - N/A   Clear
10:00 AM 41.0 °F - 5.0 °F 23% 30.30 in - Calm Calm - N/A   Clear
11:00 AM 48.2 °F - 8.6 °F 20% 30.30 in - Calm Calm - N/A   Clear
12:00 PM 52 °F - 12 °F 10%  in 12 mi Calm Calm - -  
12:00 PM 51.8 °F - 12.2 °F 21% 30.27 in - Calm Calm - N/A   Clear
1:00 PM 55.4 °F - 10.4 °F 17% 30.24 in - Calm Calm - N/A   Clear
2:00 PM 60.8 °F - 10.4 °F 14% 30.21 in - Calm Calm - N/A   Clear
3:00 PM 64 °F - 8 °F 4%  in 12 mi Calm Calm - -  
3:00 PM 64.4 °F - 8.6 °F 11% 30.18 in - Calm Calm - N/A   Clear
4:00 PM 64.4 °F - 8.6 °F 11% 30.18 in - North - - N/A   Clear
5:00 PM 66.2 °F - 10.4 °F 11% 30.18 in - Variable 1.2 mph - N/A   Clear
6:00 PM 62.6 °F - 8.6 °F 12% 30.18 in - Variable 1.2 mph - N/A   Clear
7:00 PM 60.8 °F - 10.4 °F 14% 30.18 in - Variable 2.3 mph - N/A   Clear
8:00 PM 59.0 °F - 10.4 °F 15% 30.18 in - Variable 3.5 mph - N/A   Clear
9:00 PM 56 °F - 11 °F 7%  in 12 mi SSE 3.5 mph - -  
9:00 PM 57.2 °F - 10.4 °F 16% 30.21 in - Variable 3.5 mph - N/A   Clear
10:00 PM 48.2 °F - 10.4 °F 22% 30.21 in - Variable 1.2 mph - N/A   Clear
11:00 PM 44.6 °F - 6.8 °F 21% 30.21 in - Calm Calm - N/A   Clear